period_start,C,m1,H,J0,J1,J2,J3,J4,J5,JA,JB,JC,JD,JJ,JK,JN,#
2016-03-23 00:03:54,0.41,5.79,0.00,17.36,21.77,25.22,14.96,52.16,1019.58,2055.93,1867.95,1966.42,2211.34,600.12,609.45,44.48,0000 0000 0000 0000 000000
2016-03-23 00:08:56,0.36,5.80,0.00,17.36,21.77,25.21,15.01,52.22,1019.58,2055.88,1864.41,1963.65,2208.31,600.04,609.41,44.53,0000 0000 0000 0000 000000
2016-03-23 00:13:57,0.24,5.82,0.00,17.35,21.77,25.21,14.92,52.28,1019.55,2055.62,1861.68,1961.61,2206.04,599.96,609.32,44.58,0000 0000 0000 0000 000000
2016-03-23 00:18:58,0.29,5.83,0.00,17.37,21.79,25.20,14.95,52.19,1019.55,2055.56,1858.91,1959.78,2203.87,599.99,609.32,44.63,0000 0000 0000 0000 000000
2016-03-23 00:24:00,0.36,5.85,0.00,17.37,21.79,25.21,14.93,52.07,1019.55,2055.55,1855.61,1957.28,2201.14,600.14,609.49,44.68,0000 0000 0000 0000 000000
2016-03-23 00:29:01,0.13,5.86,0.00,17.37,21.79,25.22,14.93,52.27,1019.55,2055.14,1853.95,1955.36,2199.08,599.85,609.30,44.73,0000 0000 0000 0000 000000
2016-03-23 00:34:02,0.17,5.87,0.00,17.37,21.80,25.24,15.00,52.08,1019.55,2055.04,1852.35,1953.88,2197.46,600.25,609.66,44.78,0000 0000 0000 0000 000000
2016-03-23 00:39:04,0.35,5.88,0.00,17.40,21.82,25.23,14.93,52.16,1019.43,2055.02,1849.37,1952.01,2195.27,599.65,608.82,44.83,0000 0000 0000 0000 000000
2016-03-23 00:44:05,0.54,5.91,0.00,17.40,21.82,25.25,15.00,52.28,1019.12,2055.04,1844.35,1948.54,2191.47,600.12,609.09,44.88,0000 0000 0000 0000 000000
2016-03-23 00:49:06,0.34,5.93,0.00,17.42,21.84,25.25,14.95,52.23,1019.09,2055.02,1840.87,1945.68,2188.39,600.26,609.11,44.93,0000 0000 0000 0000 000000
2016-03-23 00:54:08,0.28,5.94,0.00,17.43,21.84,25.23,15.00,52.24,1019.06,2055.01,1838.34,1943.73,2186.14,600.04,609.04,44.98,0000 0000 0000 0000 000000
2016-03-23 00:59:09,0.25,5.96,0.00,17.42,21.86,25.26,14.97,52.25,1019.06,2055.00,1836.03,1941.80,2184.12,599.92,608.94,45.03,0000 0000 0000 0000 000000
2016-03-23 01:04:10,0.21,5.97,0.00,17.45,21.87,25.27,14.91,52.23,1019.06,2055.00,1833.90,1940.16,2182.20,600.04,608.92,45.08,0000 0000 0000 0000 000000
2016-03-23 01:09:11,0.25,5.98,0.00,17.46,21.89,25.26,14.97,52.30,1019.06,2054.99,1831.79,1938.63,2180.47,599.88,608.70,45.13,0000 0000 0000 0000 000000
2016-03-23 01:14:12,0.21,5.99,0.00,17.47,21.90,25.26,14.97,52.24,1019.05,2054.99,1829.59,1937.03,2178.70,599.89,608.80,45.18,0000 0000 0000 0000 000000
2016-03-23 01:19:14,0.34,6.01,0.00,17.47,21.92,25.28,14.87,52.34,1018.97,2054.98,1827.03,1935.23,2176.67,599.91,608.72,45.23,0000 0000 0000 0000 000000
2016-03-23 01:24:15,0.23,6.02,0.00,17.51,21.94,25.28,14.94,52.32,1018.78,2054.99,1823.83,1933.31,2174.64,599.89,608.51,45.28,0000 0000 0000 0000 000000
2016-03-23 01:29:16,0.14,6.03,0.00,17.53,21.96,25.28,14.95,52.34,1018.61,2054.98,1822.43,1932.34,2173.48,600.16,608.50,45.34,0000 0000 0000 0000 000000
2016-03-23 01:34:17,0.16,6.04,0.00,17.54,21.97,25.31,14.91,52.37,1018.59,2054.96,1820.78,1931.28,2172.25,600.19,608.62,45.39,0000 0000 0000 0000 000000
2016-03-23 01:39:19,0.15,6.05,0.00,17.57,21.99,25.32,14.95,52.29,1018.58,2054.95,1819.28,1930.21,2170.99,600.08,608.47,45.44,0000 0000 0000 0000 000000
2016-03-23 01:44:20,0.15,6.06,0.00,17.60,21.99,25.34,14.89,52.28,1018.57,2054.94,1817.80,1929.24,2169.85,599.94,608.21,45.49,0000 0000 0000 0000 000000
2016-03-23 01:49:21,0.11,6.06,0.00,17.62,22.00,25.35,14.91,52.26,1018.57,2054.64,1816.18,1928.09,2168.56,600.23,608.39,45.54,0000 0000 0000 0000 000000
2016-03-23 01:54:23,0.19,6.07,0.00,17.63,22.01,25.35,14.87,52.21,1018.57,2054.66,1814.58,1927.00,2167.36,599.78,607.92,45.59,0000 0000 0000 0000 000000
2016-03-23 01:59:24,0.16,6.08,0.00,17.65,22.02,25.39,14.94,52.29,1018.57,2054.50,1812.85,1925.85,2165.97,599.67,607.88,45.64,0000 0000 0000 0000 000000
2016-03-23 02:04:25,0.11,6.09,0.00,17.67,22.02,25.42,14.96,52.32,1018.57,2054.39,1811.44,1924.82,2164.80,600.30,608.42,45.69,0000 0000 0000 0000 000000
2016-03-23 02:09:27,0.07,6.09,0.00,17.67,22.02,25.45,14.94,52.23,1018.54,2054.09,1810.64,1923.99,2163.83,600.03,608.13,45.74,0000 0000 0000 0000 000000
2016-03-23 02:14:28,0.14,6.10,0.00,17.69,22.04,25.46,14.94,52.20,1018.48,2054.04,1809.30,1923.08,2162.78,599.79,607.79,45.79,0000 0000 0000 0000 000000
2016-03-23 02:19:30,0.16,6.11,0.00,17.71,22.04,25.47,14.87,52.05,1018.44,2054.04,1807.70,1922.10,2161.62,599.54,607.50,45.84,0000 0000 0000 0000 000000
2016-03-23 02:24:31,0.10,6.11,0.00,17.69,22.04,25.50,14.90,52.21,1018.38,2054.03,1806.77,1921.30,2160.84,599.65,607.60,45.89,0000 0000 0000 0000 000000
2016-03-23 02:29:32,0.10,6.12,0.00,17.70,22.04,25.53,14.97,52.26,1018.17,2054.01,1805.80,1920.71,2159.98,600.12,607.95,45.94,0000 0000 0000 0000 000000
2016-03-23 02:34:33,0.10,6.12,0.00,17.76,22.05,25.53,14.81,52.21,1018.17,2054.00,1804.71,1919.99,2159.08,599.70,607.36,45.99,0000 0000 0000 0000 000000
2016-03-23 02:39:35,0.12,6.13,0.00,17.77,22.06,25.55,14.93,52.22,1018.15,2054.00,1803.70,1919.18,2158.15,600.16,607.89,46.04,0000 0000 0000 0000 000000
2016-03-23 02:44:36,0.11,6.13,0.00,17.77,22.07,25.57,14.92,52.20,1018.10,2054.00,1802.68,1918.59,2157.36,599.84,607.58,46.09,0000 0000 0000 0000 000000
2016-03-23 02:49:37,0.07,6.14,0.00,17.80,22.07,25.57,14.89,52.13,1018.09,2054.00,1801.80,1917.99,2156.67,600.23,607.63,46.14,0000 0000 0000 0000 000000
2016-03-23 02:54:38,0.10,6.14,0.00,17.81,22.07,25.58,14.96,52.13,1018.08,2054.00,1800.87,1917.27,2155.92,600.36,607.87,46.20,0000 0000 0000 0000 000000
2016-03-23 02:59:40,0.08,6.15,0.00,17.80,22.08,25.59,14.90,52.14,1018.08,2053.99,1800.01,1916.77,2155.07,600.02,607.58,46.25,0000 0000 0000 0000 000000
2016-03-23 03:04:41,0.10,6.15,0.00,17.80,22.09,25.62,14.93,52.17,1018.08,2053.99,1799.15,1916.04,2154.45,600.08,607.64,46.30,0000 0000 0000 0000 000000
2016-03-23 03:09:42,0.09,6.16,0.00,17.80,22.09,25.63,14.88,51.94,1018.02,2053.98,1798.48,1915.57,2153.85,599.95,607.57,46.35,0000 0000 0000 0000 000000
2016-03-23 03:14:43,0.07,6.16,0.00,17.84,22.10,25.64,14.90,52.05,1017.95,2053.98,1797.58,1915.01,2153.04,599.88,607.24,46.40,0000 0000 0000 0000 000000
2016-03-23 03:19:45,0.09,6.17,0.00,17.85,22.11,25.66,15.00,52.09,1017.73,2053.98,1796.89,1914.30,2152.31,600.27,607.40,46.45,0000 0000 0000 0000 000000
2016-03-23 03:24:46,0.06,6.17,0.00,17.88,22.12,25.67,14.93,52.02,1017.60,2053.97,1796.02,1913.91,2151.79,599.74,606.85,46.50,0000 0000 0000 0000 000000
2016-03-23 03:29:48,0.11,6.18,0.00,17.91,22.12,25.71,14.93,52.02,1017.59,2053.96,1795.00,1913.08,2150.99,600.02,607.06,46.55,0000 0000 0000 0000 000000
2016-03-23 03:34:49,0.11,6.18,0.00,17.92,22.14,25.74,14.82,51.95,1017.59,2053.95,1794.08,1912.52,2150.18,600.06,607.00,46.60,0000 0000 0000 0000 000000
2016-03-23 03:39:51,0.08,6.19,0.00,17.96,22.14,25.74,14.84,51.94,1017.59,2053.91,1793.19,1911.97,2149.43,600.01,606.95,46.65,0000 0000 0000 0000 000000
2016-03-23 03:44:52,0.11,6.19,0.00,17.95,22.15,25.73,14.88,51.98,1017.59,2053.90,1792.17,1911.15,2148.67,600.02,606.97,46.70,0000 0000 0000 0000 000000
2016-03-23 03:49:53,0.10,6.20,0.00,17.95,22.17,25.74,14.87,51.90,1017.55,2053.87,1791.25,1910.49,2147.93,600.36,607.20,46.75,0000 0000 0000 0000 000000
2016-03-23 03:54:54,0.06,6.20,0.00,17.97,22.18,25.75,14.89,51.93,1017.21,2053.76,1790.23,1909.94,2147.08,600.07,606.77,46.80,0000 0000 0000 0000 000000
2016-03-23 03:59:55,0.13,6.21,0.00,17.99,22.19,25.77,14.92,51.96,1017.12,2053.59,1789.20,1909.14,2146.24,599.98,606.63,46.85,0000 0000 0000 0000 000000
2016-03-23 04:04:57,0.09,6.21,0.00,18.01,22.21,25.77,14.86,51.96,1017.11,2053.52,1788.22,1908.53,2145.46,600.06,606.55,46.90,0000 0000 0000 0000 000000
2016-03-23 04:09:58,0.01,6.21,0.00,18.02,22.22,25.79,14.86,52.00,1017.10,2053.12,1787.65,1907.99,2144.84,599.85,606.40,46.95,0000 0000 0000 0000 000000
2016-03-23 04:14:59,0.10,6.22,0.00,18.04,22.24,25.80,14.91,51.99,1017.10,2053.09,1786.76,1907.21,2144.05,600.11,606.54,47.00,0000 0000 0000 0000 000000
2016-03-23 04:20:00,0.12,6.22,0.00,18.05,22.25,25.83,14.90,52.08,1016.89,2053.03,1785.62,1906.61,2143.24,599.94,606.30,47.05,0000 0000 0000 0000 000000
2016-03-23 04:25:02,0.08,6.23,0.00,18.07,22.27,25.85,14.85,52.00,1016.65,2053.01,1784.72,1905.99,2142.41,600.11,606.24,47.11,0000 0000 0000 0000 000000
2016-03-23 04:30:03,0.06,6.23,0.00,18.08,22.29,25.85,14.84,51.98,1016.63,2053.01,1784.08,1905.44,2141.94,599.92,606.01,47.16,0000 0000 0000 0000 000000
2016-03-23 04:35:04,0.07,6.24,0.00,18.10,22.30,25.85,14.82,52.02,1016.62,2053.01,1783.41,1904.99,2141.10,600.05,606.15,47.21,0000 0000 0000 0000 000000
2016-03-23 04:40:06,0.10,6.24,0.00,18.11,22.32,25.87,14.90,52.02,1016.62,2053.00,1782.69,1904.22,2140.49,600.06,606.20,47.26,0000 0000 0000 0000 000000
2016-03-23 04:45:07,0.04,6.24,0.00,18.11,22.33,25.88,14.93,52.07,1016.62,2053.00,1781.90,1903.91,2139.89,600.01,605.95,47.31,0000 0000 0000 0000 000000
2016-03-23 04:50:08,0.12,6.25,0.00,18.13,22.34,25.89,14.97,52.11,1016.60,2053.00,1780.87,1903.08,2139.06,600.24,606.18,47.36,0000 0000 0000 0000 000000
2016-03-23 04:55:09,0.11,6.25,0.00,18.13,22.37,25.89,14.84,52.01,1016.31,2052.99,1780.00,1902.55,2138.36,599.94,605.74,47.41,0000 0000 0000 0000 000000
2016-03-23 05:00:11,0.07,6.26,0.00,18.15,22.37,25.90,14.85,52.02,1016.14,2052.98,1779.10,1901.94,2137.65,600.21,605.98,47.46,0000 0000 0000 0000 000000
2016-03-23 05:05:13,0.11,6.27,0.00,18.16,22.39,25.93,14.90,52.02,1016.13,2052.97,1777.97,1901.13,2136.87,600.10,605.73,47.51,0000 0000 0000 0000 000000
2016-03-23 05:10:14,0.12,6.27,0.00,18.18,22.40,25.95,14.89,52.02,1016.13,2052.97,1776.87,1900.51,2136.01,600.08,605.64,47.56,0000 0000 0000 0000 000000
2016-03-23 05:15:15,0.09,6.28,0.00,18.17,22.42,25.96,14.78,51.98,1016.12,2052.97,1775.86,1899.90,2135.15,599.98,605.57,47.61,0000 0000 0000 0000 000000
2016-03-23 05:20:16,0.13,6.28,0.00,18.18,22.44,25.96,14.85,52.02,1016.00,2052.97,1774.75,1899.09,2134.34,600.07,605.68,47.66,0000 0000 0000 0000 000000
2016-03-23 05:25:18,0.13,6.29,0.00,18.23,22.45,25.99,14.82,51.96,1015.77,2052.96,1773.61,1898.38,2133.54,600.04,605.33,47.71,0000 0000 0000 0000 000000
2016-03-23 05:30:19,0.05,6.29,0.00,18.26,22.47,26.00,14.88,52.08,1015.66,2052.93,1772.77,1897.91,2132.87,600.16,605.32,47.76,0000 0000 0000 0000 000000
2016-03-23 05:35:21,0.09,6.30,0.00,18.28,22.48,26.00,14.89,52.10,1015.64,2052.81,1771.91,1897.09,2132.05,600.16,605.28,47.81,0000 0000 0000 0000 000000
2016-03-23 05:40:22,0.08,6.30,0.00,18.28,22.49,26.03,14.86,52.02,1015.61,2052.71,1771.07,1896.62,2131.36,600.08,605.20,47.86,0000 0000 0000 0000 000000
2016-03-23 05:45:23,0.06,6.31,0.00,18.28,22.52,26.03,14.89,52.05,1015.30,2052.59,1770.21,1896.00,2130.73,600.34,605.07,47.91,0000 0000 0000 0000 000000
2016-03-23 05:50:25,0.07,6.31,0.00,18.30,22.52,26.06,14.85,52.09,1015.17,2052.27,1769.20,1895.22,2129.92,600.04,604.73,47.97,0000 0000 0000 0000 000000
2016-03-23 05:55:26,0.01,6.31,0.00,18.33,22.54,26.06,14.88,52.00,1015.15,2052.07,1768.95,1894.97,2129.14,600.02,604.74,48.02,0000 0000 0000 0000 000000
2016-03-23 06:00:28,0.10,6.32,0.00,18.34,22.55,26.08,14.86,52.09,1015.15,2052.05,1768.17,1894.18,2128.79,600.04,604.72,48.07,0000 0000 0000 0000 000000
2016-03-23 06:05:29,0.06,6.32,0.00,18.34,22.57,26.07,14.86,52.05,1015.15,2052.02,1767.62,1893.90,2128.04,599.76,604.57,48.12,0000 0000 0000 0000 000000
2016-03-23 06:10:30,0.09,6.32,0.00,18.33,22.58,26.09,14.85,52.02,1015.13,2052.01,1766.86,1893.11,2127.47,600.21,604.86,48.17,0000 0000 0000 0000 000000
2016-03-23 06:15:31,0.07,6.33,0.00,18.33,22.59,26.10,14.92,52.03,1014.97,2052.00,1766.04,1892.74,2126.88,600.08,604.65,48.22,0000 0000 0000 0000 000000
2016-03-23 06:20:33,0.09,6.33,0.00,18.34,22.61,26.11,14.85,52.05,1014.70,2052.00,1765.37,1892.04,2126.09,599.92,604.27,48.27,0000 0000 0000 0000 000000
2016-03-23 06:25:34,0.10,6.34,0.00,18.33,22.62,26.12,14.87,52.02,1014.68,2052.00,1764.56,1891.56,2125.48,599.92,604.28,48.32,0000 0000 0000 0000 000000
2016-03-23 06:30:36,0.04,6.34,0.00,18.36,22.62,26.16,14.80,52.05,1014.66,2051.99,1763.78,1891.00,2124.92,600.07,604.49,48.37,0000 0000 0000 0000 000000
2016-03-23 06:35:37,0.10,6.35,0.00,18.37,22.64,26.16,14.78,51.98,1014.66,2051.98,1762.96,1890.39,2124.07,599.82,604.11,48.42,0000 0000 0000 0000 000000
2016-03-23 06:40:38,0.08,6.35,0.00,18.37,22.64,26.19,14.88,51.98,1014.66,2051.99,1762.04,1889.99,2123.49,600.18,604.46,48.47,0000 0000 0000 0000 000000
2016-03-23 06:45:40,0.10,6.36,0.00,18.40,22.65,26.18,14.79,52.00,1014.66,2051.98,1761.19,1889.24,2122.94,600.30,604.58,48.52,0000 0000 0000 0000 000000
2016-03-23 06:50:41,0.07,6.36,0.00,18.39,22.67,26.20,14.89,51.96,1014.66,2051.99,1760.49,1888.91,2122.15,600.19,604.47,48.57,0000 0000 0000 0000 000000
2016-03-23 06:55:43,0.12,6.37,0.00,18.40,22.67,26.22,14.83,51.98,1014.64,2051.96,1759.34,1888.10,2121.40,600.15,604.43,48.62,0000 0000 0000 0000 000000
2016-03-23 07:00:44,0.11,6.37,0.00,18.41,22.69,26.23,14.87,51.96,1014.61,2051.94,1758.16,1887.55,2120.67,600.08,604.28,48.67,0000 0000 0000 0000 000000
2016-03-23 07:05:45,0.07,6.38,0.00,18.43,22.69,26.22,14.84,51.92,1014.54,2051.93,1757.12,1886.93,2119.98,599.86,604.08,48.72,0000 0000 0000 0000 000000
2016-03-23 07:10:46,0.10,6.38,0.00,18.45,22.72,26.23,14.92,52.01,1014.39,2051.90,1756.69,1886.12,2119.19,600.31,604.31,48.78,0000 0000 0000 0000 000000
2016-03-23 07:15:48,0.10,6.38,0.00,18.47,22.73,26.24,14.81,52.01,1014.37,2051.74,1755.59,1885.55,2118.42,600.03,604.01,48.83,0000 0000 0000 0000 000000
2016-03-23 07:20:49,0.09,6.39,0.00,18.48,22.74,26.24,14.86,52.02,1014.22,2051.61,1754.42,1884.74,2117.43,600.31,604.16,48.88,0000 0000 0000 0000 000000
2016-03-23 07:25:51,0.09,6.40,0.00,18.49,22.76,26.26,14.86,52.13,1014.23,2051.43,1753.26,1883.92,2116.51,600.25,603.91,48.93,0000 0000 0000 0000 000000
2016-03-23 07:30:52,0.10,6.40,0.00,18.49,22.78,26.26,14.76,52.21,1014.20,2051.11,1752.10,1883.03,2115.51,600.02,603.92,48.98,0000 0000 0000 0000 000000
2016-03-23 07:35:53,0.16,6.41,0.00,18.49,22.80,26.26,14.80,52.06,1014.20,2051.05,1750.69,1882.10,2114.48,599.93,603.63,49.03,0000 0000 0000 0000 000000
2016-03-23 07:40:54,0.14,6.42,0.00,18.51,22.82,26.27,14.80,52.08,1014.19,2051.03,1749.29,1881.13,2113.40,599.60,603.46,49.08,0000 0000 0000 0000 000000
2016-03-23 07:45:56,0.16,6.42,0.00,18.52,22.84,26.27,14.81,52.12,1014.19,2051.02,1747.80,1880.16,2112.31,599.82,603.57,49.13,0000 0000 0000 0000 000000
2016-03-23 07:50:57,0.16,6.43,0.00,18.54,22.86,26.25,14.76,52.22,1014.19,2051.00,1746.26,1879.10,2111.10,599.73,603.59,49.18,0000 0000 0000 0000 000000
2016-03-23 07:55:59,0.16,6.44,0.00,18.54,22.87,26.28,14.77,52.14,1014.18,2051.00,1744.72,1877.99,2109.98,599.73,603.53,49.23,0000 0000 0000 0000 000000
2016-03-23 08:01:00,0.14,6.45,0.00,18.55,22.89,26.28,14.87,52.09,1014.18,2051.00,1743.45,1877.05,2108.89,599.91,603.59,49.28,0000 0000 0000 0000 000000
2016-03-23 08:06:01,0.15,6.46,0.00,18.59,22.91,26.30,14.83,52.17,1014.18,2051.00,1742.00,1876.07,2107.78,600.01,603.60,49.33,0000 0000 0000 0000 000000
2016-03-23 08:11:02,0.19,6.47,0.00,18.58,22.93,26.29,14.82,52.25,1014.18,2050.98,1740.50,1874.95,2106.58,600.17,603.80,49.38,0000 0000 0000 0000 000000
2016-03-23 08:16:03,0.20,6.48,0.00,18.57,22.94,26.29,14.78,52.19,1014.17,2050.99,1738.74,1873.74,2105.24,599.93,603.63,49.43,0000 0000 0000 0000 000000
2016-03-23 08:21:04,0.11,6.48,0.00,18.57,22.96,26.31,14.81,52.22,1014.17,2050.97,1737.54,1872.90,2104.17,599.95,603.77,49.48,0000 0000 0000 0000 000000
2016-03-23 08:26:05,0.14,6.49,0.00,18.57,22.98,26.32,14.77,52.16,1014.12,2050.97,1736.24,1871.98,2103.13,599.88,603.58,49.53,0000 0000 0000 0000 000000
2016-03-23 08:31:07,0.13,6.50,0.00,18.54,22.99,26.32,14.84,52.18,1014.08,2050.89,1734.90,1871.07,2102.05,600.01,603.61,49.58,0000 0000 0000 0000 000000
2016-03-23 08:36:08,0.13,6.50,0.00,18.53,23.01,26.32,14.87,52.23,1014.04,2050.67,1733.63,1870.15,2101.00,599.75,603.37,49.63,0000 0000 0000 0000 000000
2016-03-23 08:41:09,0.11,6.51,0.00,18.55,23.02,26.34,14.81,52.23,1013.98,2050.47,1732.38,1869.25,2100.04,600.05,603.63,49.68,0000 0000 0000 0000 000000
2016-03-23 08:46:11,0.09,6.52,0.00,18.56,23.04,26.33,14.83,52.17,1013.87,2050.15,1731.01,1868.35,2099.01,600.04,603.56,49.74,0000 0000 0000 0000 000000
2016-03-23 08:51:12,0.15,6.52,0.00,18.62,23.04,26.34,14.78,52.18,1013.98,2050.10,1729.75,1867.50,2097.99,600.08,603.60,49.79,0000 0000 0000 0000 000000
2016-03-23 08:56:13,0.15,6.53,0.00,18.61,23.05,26.35,14.76,52.16,1013.88,2050.04,1728.36,1866.54,2096.89,599.69,603.08,49.84,0000 0000 0000 0000 000000
2016-03-23 09:01:15,0.13,6.54,0.00,18.61,23.07,26.37,14.89,52.17,1013.72,2050.03,1727.12,1865.64,2095.82,600.07,603.36,49.89,0000 0000 0000 0000 000000
2016-03-23 09:06:16,0.18,6.54,0.00,18.61,23.07,26.36,14.85,52.20,1013.70,2050.01,1725.67,1864.60,2094.65,600.40,603.61,49.94,0000 0000 0000 0000 000000
2016-03-23 09:11:18,0.14,6.55,0.00,18.63,23.09,26.36,14.76,52.07,1013.70,2050.00,1724.38,1863.66,2093.56,599.90,603.14,49.99,0000 0000 0000 0000 000000
2016-03-23 09:16:19,0.12,6.56,0.00,18.64,23.09,26.37,14.90,52.16,1013.71,2050.00,1723.08,1862.83,2092.65,600.06,603.28,50.04,0000 0000 0000 0000 000000
2016-03-23 09:21:21,0.20,6.57,0.00,18.65,23.10,26.39,14.81,52.09,1013.70,2050.00,1721.34,1861.72,2091.35,599.73,602.92,50.09,0000 0000 0000 0000 000000
2016-03-23 09:26:22,0.18,6.58,0.00,18.67,23.11,26.39,14.77,52.17,1013.71,2050.00,1719.62,1860.62,2090.03,599.93,603.15,50.14,0000 0000 0000 0000 000000
2016-03-23 09:31:23,0.17,6.59,0.00,18.70,23.12,26.38,14.74,52.04,1013.70,2050.00,1717.94,1859.55,2088.91,599.93,603.10,50.19,0000 0000 0000 0000 000000
2016-03-23 09:36:25,0.19,6.60,0.00,18.69,23.12,26.40,14.79,51.94,1013.69,2050.00,1716.36,1858.51,2087.70,599.73,602.99,50.24,0000 0000 0000 0000 000000
2016-03-23 09:41:26,0.13,6.61,0.00,18.70,23.12,26.43,14.80,52.04,1013.70,2050.00,1714.88,1857.67,2086.70,599.79,602.89,50.29,0000 0000 0000 0000 000000
2016-03-23 09:46:27,0.17,6.61,0.00,18.70,23.12,26.44,14.85,52.08,1013.69,2050.00,1713.41,1856.69,2085.57,600.12,603.21,50.34,0000 0000 0000 0000 000000
2016-03-23 09:51:29,0.19,6.62,0.00,18.69,23.12,26.45,14.77,52.12,1013.69,2050.00,1711.52,1855.62,2084.33,599.95,603.03,50.39,0000 0000 0000 0000 000000
2016-03-23 09:56:30,0.15,6.63,0.00,18.70,23.12,26.43,14.70,52.02,1013.69,2050.00,1709.85,1854.77,2083.15,599.73,602.81,50.44,0000 0000 0000 0000 000000
2016-03-23 10:01:31,0.14,6.64,0.00,18.70,23.13,26.44,14.82,52.04,1013.69,2050.00,1708.56,1853.89,2082.05,600.04,603.13,50.49,0000 0000 0000 0000 000000
2016-03-23 10:06:33,0.17,6.65,0.00,18.69,23.14,26.47,14.78,52.13,1013.69,2050.00,1707.20,1852.91,2080.96,600.05,603.18,50.54,0000 0000 0000 0000 000000
2016-03-23 10:11:34,0.17,6.66,0.00,18.70,23.14,26.46,14.91,52.23,1013.69,2050.00,1705.44,1851.86,2079.78,600.29,603.31,50.60,0000 0000 0000 0000 000000
2016-03-23 10:16:35,0.22,6.67,0.00,18.69,23.14,26.45,14.87,52.25,1013.69,2050.00,1703.58,1850.68,2078.43,600.20,603.27,50.65,0000 0000 0000 0000 000000
2016-03-23 10:21:36,0.36,6.68,0.00,18.69,23.14,26.45,14.85,52.45,1013.58,2050.03,1700.16,1848.89,2076.45,599.97,602.99,50.70,0000 0000 0000 0000 000000
2016-03-23 10:26:38,0.21,6.70,0.00,18.71,23.15,26.47,14.82,52.24,1013.65,2050.01,1698.15,1847.67,2074.85,599.98,602.94,50.75,0000 0000 0000 0000 000000
2016-03-23 10:31:39,0.20,6.71,0.00,18.71,23.16,26.47,14.75,52.21,1013.57,2050.02,1696.40,1846.46,2073.49,600.01,602.99,50.80,0000 0000 0000 0000 000000
2016-03-23 10:36:40,0.18,6.72,0.00,18.71,23.17,26.47,14.85,52.27,1013.40,2050.02,1694.65,1845.30,2072.15,600.00,602.89,50.85,0000 0000 0000 0000 000000
2016-03-23 10:41:42,0.19,6.73,0.00,18.71,23.17,26.48,14.82,52.23,1013.22,2050.03,1692.91,1844.15,2070.77,600.05,602.77,50.90,0000 0000 0000 0000 000000
2016-03-23 10:46:43,0.19,6.74,0.00,18.72,23.18,26.49,14.77,52.33,1013.23,2050.02,1691.22,1842.94,2069.48,599.76,602.59,50.95,0000 0000 0000 0000 000000
2016-03-23 10:51:44,0.19,6.75,0.00,18.72,23.19,26.49,14.89,52.38,1013.21,2050.01,1689.54,1841.77,2068.09,600.22,602.96,51.00,0000 0000 0000 0000 000000
2016-03-23 10:56:46,0.20,6.76,0.00,18.74,23.19,26.48,14.74,52.36,1013.20,2050.00,1687.88,1840.64,2066.74,599.81,602.51,51.05,0000 0000 0000 0000 000000
2016-03-23 11:01:47,0.19,6.77,0.00,18.75,23.21,26.49,14.78,52.46,1013.17,2050.01,1686.20,1839.58,2065.49,599.88,602.55,51.10,0000 0000 0000 0000 000000
2016-03-23 11:06:48,0.19,6.78,0.00,18.74,23.22,26.49,14.81,52.72,1013.04,2050.01,1684.41,1838.38,2064.05,600.05,602.66,51.15,0000 0000 0000 0000 000000
2016-03-23 11:11:49,0.20,6.79,0.00,18.74,23.22,26.50,14.83,52.63,1012.90,2050.00,1682.69,1837.21,2062.74,600.29,602.75,51.20,0000 0000 0000 0000 000000
2016-03-23 11:16:51,0.20,6.80,0.00,18.76,23.22,26.51,14.74,52.81,1012.76,2050.01,1680.90,1836.01,2061.44,599.96,602.35,51.25,0000 0000 0000 0000 000000
2016-03-23 11:21:52,0.19,6.81,0.00,18.76,23.23,26.52,14.77,52.64,1012.92,2050.01,1679.16,1834.86,2059.99,600.24,602.76,51.30,0000 0000 0000 0000 000000
2016-03-23 11:26:53,0.22,6.82,0.00,18.76,23.24,26.52,14.73,52.58,1013.16,2050.00,1677.42,1833.69,2058.64,599.80,602.40,51.35,0000 0000 0000 0000 000000
2016-03-23 11:31:55,0.19,6.83,0.00,18.75,23.24,26.53,14.75,52.61,1013.14,2050.00,1675.73,1832.55,2057.33,599.99,602.60,51.40,0000 0000 0000 0000 000000
2016-03-23 11:36:56,0.17,6.84,0.00,18.76,23.24,26.51,14.78,52.63,1013.17,2050.01,1674.10,1831.49,2056.00,600.08,602.81,51.46,0000 0000 0000 0000 000000
2016-03-23 11:41:57,0.20,6.85,0.00,18.76,23.24,26.51,14.77,52.58,1013.14,2050.00,1672.40,1830.37,2054.74,599.93,602.56,51.51,0000 0000 0000 0000 000000
2016-03-23 11:46:59,0.20,6.86,0.00,18.74,23.24,26.52,14.84,52.66,1012.88,2050.00,1670.68,1829.17,2053.41,600.06,602.63,51.56,0000 0000 0000 0000 000000
2016-03-23 11:52:00,0.16,6.87,0.00,18.75,23.24,26.52,14.76,52.93,1012.78,2050.00,1669.04,1828.06,2052.07,599.86,602.33,51.61,0000 0000 0000 0000 000000
2016-03-23 11:57:01,0.20,6.88,0.00,18.74,23.23,26.53,14.80,53.07,1012.71,2050.01,1667.39,1826.95,2050.73,600.26,602.69,51.66,0000 0000 0000 0000 000000
2016-03-23 12:02:02,0.19,6.89,0.00,18.74,23.22,26.52,14.82,52.94,1012.71,2050.01,1665.75,1825.91,2049.55,600.06,602.46,51.71,0000 0000 0000 0000 000000
2016-03-23 12:07:04,0.16,6.90,0.00,18.72,23.22,26.51,14.77,52.77,1012.85,2050.01,1664.37,1824.88,2048.43,599.86,602.41,51.76,0000 0000 0000 0000 000000
2016-03-23 12:12:05,0.18,6.90,0.00,18.72,23.22,26.51,14.80,52.71,1013.14,2050.01,1662.84,1823.83,2047.18,600.17,602.93,51.81,0000 0000 0000 0000 000000
2016-03-23 12:17:06,0.17,6.91,0.00,18.72,23.22,26.51,14.76,52.54,1013.14,2050.03,1661.28,1822.78,2046.21,599.83,602.53,51.86,0000 0000 0000 0000 000000
2016-03-23 12:22:08,0.19,6.92,0.00,18.70,23.21,26.51,14.80,52.61,1013.08,2050.01,1659.63,1821.74,2044.97,600.09,602.77,51.91,0000 0000 0000 0000 000000
2016-03-23 12:27:09,0.17,6.93,0.00,18.71,23.20,26.50,14.72,52.58,1013.05,2050.01,1658.13,1820.67,2043.77,599.83,602.51,51.96,0000 0000 0000 0000 000000
2016-03-23 12:32:10,0.20,6.94,0.00,18.69,23.19,26.50,14.84,52.53,1013.12,2050.02,1656.56,1819.63,2042.55,600.13,602.89,52.01,0000 0000 0000 0000 000000
2016-03-23 12:37:12,0.18,6.95,0.00,18.68,23.19,26.49,14.75,52.47,1013.15,2050.02,1654.91,1818.59,2041.31,600.00,602.80,52.06,0000 0000 0000 0000 000000
2016-03-23 12:42:13,0.17,6.96,0.00,18.68,23.19,26.49,14.74,52.48,1013.08,2050.03,1653.40,1817.58,2040.14,599.95,602.74,52.11,0000 0000 0000 0000 000000
2016-03-23 12:47:14,0.19,6.97,0.00,18.69,23.18,26.50,14.77,52.54,1013.15,2050.03,1651.83,1816.54,2038.90,600.30,603.10,52.16,0000 0000 0000 0000 000000
2016-03-23 12:52:16,0.18,6.98,0.00,18.68,23.17,26.48,14.82,52.58,1013.05,2050.05,1650.27,1815.49,2037.64,599.93,602.67,52.21,0000 0000 0000 0000 000000
2016-03-23 12:57:17,0.19,6.99,0.00,18.69,23.17,26.47,14.81,52.42,1012.80,2050.06,1648.67,1814.42,2036.50,600.19,602.76,52.26,0000 0000 0000 0000 000000